| time (UTC) | temp F | wind direction | speed knots | gust knots | rain 1hr in | rain 24hr in | rain mn in | humidity % | barometer mb |
| 20260506225234 | 48 | 0.0 | 0.0 | 0.00 | 0.00 | 0.00 | 94 | ||
| 20260506222234 | 48 | 0.0 | 0.0 | 0.00 | 0.00 | 0.00 | 93 | ||
| 20260506215234 | 50 | 0.0 | 0.0 | 0.00 | 0.00 | 0.00 | 93 | ||
| 20260506212234 | 52 | 0.0 | 0.0 | 0.00 | 0.00 | 0.00 | 89 | ||
| 20260506205234 | 60 | 0.0 | 0.0 | 0.00 | 0.00 | 0.00 | 93 | ||
| 20260506202234 | 62 | 0.0 | 0.0 | 0.00 | 0.00 | 0.00 | 96 | ||
| 20260506195234 | 62 | 0.0 | 0.0 | 0.00 | 0.00 | 0.00 | 96 | ||
| 20260506192234 | 61 | 0.0 | 0.0 | 0.00 | 0.00 | 0.00 | 96 | ||
| 20260506185234 | 61 | 0.0 | 0.0 | 0.00 | 0.00 | 0.00 | 96 | ||
| 20260506182234 | 61 | 0.0 | 0.0 | 0.00 | 0.00 | 0.00 | 96 | ||
| 20260506175234 | 61 | 0.0 | 0.0 | 0.00 | 0.00 | 0.00 | 97 | ||
| 20260506172234 | 61 | 0.0 | 0.0 | 0.00 | 0.00 | 0.00 | 97 | ||
| 20260506165234 | 60 | 0.0 | 0.0 | 0.00 | 0.00 | 0.00 | 99 | ||
| 20260506162234 | 60 | 0.0 | 0.0 | 0.00 | 0.00 | 0.00 | 97 | ||
| 20260506155234 | 59 | 0.0 | 0.0 | 0.00 | 0.00 | 0.00 | 96 | ||
| 20260506152234 | 58 | 0.0 | 0.0 | 0.00 | 0.00 | 0.00 | 95 | ||
| 20260506145234 | 57 | 0.0 | 0.0 | 0.00 | 0.00 | 0.00 | 95 | ||
| 20260506142234 | 57 | 0.0 | 0.0 | 0.00 | 0.00 | 0.00 | 94 | ||
| 20260506135234 | 56 | 0.0 | 0.0 | 0.00 | 0.00 | 0.00 | 94 | ||
| 20260506132234 | 56 | 0.0 | 0.0 | 0.00 | 0.00 | 0.00 | 94 | ||
| 20260506125234 | 55 | 0.0 | 0.0 | 0.00 | 0.00 | 0.00 | 93 | ||
| 20260506122234 | 55 | 0.0 | 0.0 | 0.00 | 0.00 | 0.00 | 93 | ||
| 20260506115234 | 54 | 0.0 | 0.0 | 0.00 | 0.00 | 0.00 | 94 | ||
| 20260506112234 | 54 | 0.0 | 0.0 | 0.00 | 0.00 | 0.00 | 94 | ||
| 20260506105234 | 53 | 0.0 | 0.0 | 0.00 | 0.00 | 0.00 | 94 | ||
| 20260506102234 | 53 | 0.0 | 0.0 | 0.00 | 0.00 | 0.00 | 93 | ||
| 20260506095234 | 52 | 0.0 | 0.0 | 0.00 | 0.00 | 0.00 | 93 | ||
| 20260506092234 | 53 | 0.0 | 0.0 | 0.00 | 0.00 | 0.00 | 92 | ||
| 20260506085234 | 53 | 0.0 | 0.0 | 0.00 | 0.00 | 0.00 | 92 | ||
| 20260506082234 | 54 | 0.0 | 0.0 | 0.00 | 0.00 | 0.00 | 92 | ||
| 20260506072234 | 55 | 0.0 | 0.0 | 0.00 | 0.00 | 0.00 | 90 | ||
| 20260506062234 | 56 | 0.0 | 0.0 | 0.00 | 0.00 | 0.00 | 89 | ||
| 20260506042234 | 59 | 0.0 | 0.0 | 0.00 | 0.00 | 0.00 | 87 | ||
| 20260506035234 | 60 | 0.0 | 0.0 | 0.00 | 0.00 | 0.00 | 88 | ||
| 20260506032233 | 60 | 0.0 | 0.0 | 0.00 | 0.00 | 0.00 | 88 | ||
| 20260506025234 | 61 | 0.0 | 0.0 | 0.00 | 0.00 | 0.00 | 85 | ||
| 20260506022233 | 61 | 0.0 | 0.0 | 0.00 | 0.00 | 0.00 | 83 | ||
| 20260506015233 | 62 | 0.0 | 0.0 | 0.00 | 0.00 | 0.00 | 80 | ||
| 20260506012233 | 62 | 0.0 | 0.0 | 0.00 | 0.00 | 0.00 | 77 | ||
| 20260506005233 | 63 | 0.0 | 0.0 | 0.00 | 0.00 | 0.00 | 75 | ||
| 20260506002233 | 64 | 0.0 | 0.0 | 0.00 | 0.00 | 0.00 | 69 | ||
| 20260505235234 | 65 | 0.0 | 0.0 | 0.00 | 0.00 | 0.00 | 68 | ||
| 20260505232233 | 66 | 0.0 | 0.0 | 0.00 | 0.00 | 0.00 | 65 |